Regional Weather Roundup
Issued by NWS Charleston, SC

Current Version | Previous Version | Graphics & Text | Print | Product List | Glossary On
Versions: 1 2 3 4 5 6 7 8 9 10 11 12 13 14 15 16 17 18 19 20 21 22 23 24 25 26 27 28 29 30 31 32 33 34 35 36 37 38 39 40 41 42 43 44 45 46 47 48 49 50
000 ASUS42 KCHS 270810 RWRCHS REGIONAL WEATHER ROUNDUP NATIONAL WEATHER SERVICE CHARLESTON SC 300 AM EST TUE JAN 27 2015 NOTE: "FAIR" INDICATES FEW OR NO CLOUDS BELOW 12,000 FEET WITH NO SIGNIFICANT WEATHER AND/OR OBSTRUCTIONS TO VISIBILITY. NOT ALL STATIONS ARE QUALITY CONTROLLED BY THE NATIONAL WEATHER SERVICE. USE DATA WITH CAUTION...ESPECIALLY DEWPOINT OBSERVATIONS. SCZ027-030-031-034>040-042>050-270900- ...SOUTHEAST SOUTH CAROLINA... CITY SKY/WX TMP DP RH WIND PRES REMARKS N CHARLESTON PTCLDY 39 30 70 W14G22 29.81R WCI 31 WATERFRONT PRK NOT AVBL MOUNT PLEASANT LGT RAIN N/A N/A N/A W10 29.79R PINOPOLIS NOT AVBL MONCKS CORNER FAIR 41 30 65 W6 29.79R SUMMERVILLE NOT AVBL BEAUFORT MCAS CLEAR 39 29 67 W14 29.85R WCI 31 BEAUFORT ARPT FAIR 39 32 75 W14 29.85R WCI 31 HILTON HEAD IS CLEAR 39 32 75 SW10 29.87R WCI 32 WALTERBORO SUNNY 37 28 70 W9 29.84R WCI 31 ALLENDALE FAIR 37 28 70 VRB5G13 29.85R WCI 34 ...SOUTHERN MIDLANDS AND PEE DEE... CITY SKY/WX TMP DP RH WIND PRES REMARKS GEORGETOWN NOT AVBL KINGSTREE NOT AVBL ORANGEBURG PTCLDY 37 27 67 W10 29.83R WCI 30 BARNWELL FAIR 36 28 75 SW3 29.85R AIKEN FAIR 34 28 80 W7 29.85R WCI 28 MANNING NOT AVBL COLUMBIA CLEAR 36 28 73 W7 29.81R WCI 30 SUMTER CLEAR 36 25 62 W8 29.78R WCI 30 FLORENCE CLEAR 40 26 57 NW12 29.76R WCI 33 MYRTLE BEACH CLOUDY 45 36 70 W7 29.74R N MYRTLE BEACH PTCLDY 44 35 70 NW6 29.70S $$ GAZ063-065-086>088-099>101-113>116-118-119-134>141-150-270900- ...SOUTHEAST GEORGIA... CITY SKY/WX TMP DP RH WIND PRES REMARKS SAVANNAH ARPT CLEAR 38 28 67 W13 29.88R WCI 30 HUNTER AAF CLEAR 38 29 71 W13G23 29.86R WCI 30 FORT STEWART CLEAR 39 28 66 W13 29.90R WCI 31 STATESBORO CLEAR 38 30 74 W10 29.88S WCI 30 SYLVANIA SUNNY 37 31 78 W9 29.87R WCI 31 CLAXTON FAIR 37 32 81 W10G17 29.91R WCI 30 ...CSRA...CENTRAL AND FAR SOUTHEAST GEORGIA... CITY SKY/WX TMP DP RH WIND PRES REMARKS THOMSON CLEAR 35 31 83 W8 29.90F WCI 29 AUGUSTA-BUSH CLEAR 35 25 66 W8 29.86S WCI 29 AUGUSTA-DANIEL CLEAR 37 26 64 W7 29.84F WCI 32 SWAINSBORO FAIR 37 25 60 W8 29.92S WCI 31 VIDALIA CLEAR 37 32 81 W5 29.94R WCI 34 EASTMAN FAIR 37 33 84 W3 29.98S HAZLEHURST FAIR 40 34 77 NW5 29.95S WCI 37 ALMA CLOUDY 41 32 70 NW10 29.95F WAYCROSS MOCLDY 42 37 82 W8 29.96S JESUP PTSUNNY 43 34 70 NW13 29.94R BAXLEY CLOUDY 41 32 70 NW7 29.95S BRUNSWICK CLEAR 41 32 70 W10G17 29.92S SAINT SIMONS CLEAR 41 30 65 W13G23 29.91S $$ SCZ027-028-034-036>038-045-046-048>050-GAZ119-141-270900- ...LAKE AND SUPPLEMENTAL COASTAL OBSERVATIONS... STATION/POSITION TIME TEMP WIND PRES WAVE SWELL AIR SEA DIR/SP/G HT/PER HT/PER/DIR (UTC) (F) (DEG/KT/KT) (MB) (FT/S) (FT/S/D) UPR LAKE MARION NOT AVBL WINYAH BAY 0700 44 280/ 9 1005.0S LAKE MURRAY 0700 39 280/ 6/ 10 1008.8S ACE BASIN NERRS NOT AVBL FORT PULASKI 0800 40 53 280/ 17/ 20 1011.6R SAPELO ISLAND 0700 42 280/ 12 1012.0S $$ ANZ835-935-AMZ111-154-330-350-352-354-370-450-454-472-270900- ...C-MAN AND BUOY OBSERVATIONS... STATION/POSITION TIME TEMP WIND PRES WAVE SWELL AIR SEA DIR/SP/G HT/PER HT/PER/DIR (UTC) (F) (DEG/KT/KT) (MB) (FT/S) (FT/S/D) BUOY 41004 0800 48 68 290/ 25/ 29 1006.6R 8/ 7 2/13 BUOY 41008 0800 44 55 300/ 25/ 29 1010.9F 5/ 5 FOLLY BEACH CMAN 0700 41 270/ 10/ 16 1008.9R CAPERS NEARSHORE 0700 45 300/ 19/ 21 N/A FRIPP NEARSHORE 0700 44 280/ 21/ 25 N/A STATION/POSITION TIME TEMP WIND PRES WAVE SWELL AIR SEA DIR/SP/G HT/PER HT/PER/DIR (UTC) (F) (DEG/KT/KT) (MB) (FT/S) (FT/S/D) 5E ST. MARYS GA 0800 58 N/A 3/ 4 FRYING PAN BUOY 0800 51 67 310/ 19/ 25 1004.4R 7/ 8 3/210/ 8 BUOY 41025 0800 44 66 340/ 23/ 29 1001.0R 5/ 4 2/180/ 8 CAPE LOOKOUT NC 0700 45 340/ 21/ 23 1002.7R BUOY 41002 0750 61 72 260/ 25/ 37 1001.2R 14/10 BUOY 41010 0800 62 76 280/ 27/ 33 1009.5R 13/ 9 ST AUGUSTINE FL 0800 44 300/ 13/ 15 1014.5F $$

USA.gov is the U.S. government's official web portal to all federal, state and local government web resources and services.